Home   Weather   42°58'N, 88°02'W   Past weeks
Flag for USA

Past Weather in 42°58'N, 88°02'W, USA — Yesterday and Last 2 Weeks

Now
55 °F

Overcast.


Feels Like: 55 °F
Forecast: 78 / 59 °F
Wind: 3 mph from South

Location: Milwaukee / Timmerman

Current Time: May 25, 2019 at 12:07:53 am

Latest Report: May 24, 2019 at 11:15 pm


Visibility: 10 mi

Pressure: 29.90 "Hg

Humidity: 82%

Dew Point: 50 °F

Location of 42°58'N, 88°02'WLocation

Past Weather in 42°58'N, 88°02'W — Graph

°F

42°58'N, 88°02'W Temperature Yesterday

Maximum temperature yesterday: 63 °F (at 4:45 pm)
Minimum temperature yesterday: 52 °F (at 1:35 am)
Average temperature yesterday: 54 °F

High & Low Weather Summary for the Past Weeks

 TemperatureHumidityPressure
High79 °F (May 22, 3:45 pm)94% (May 16, 11:35 pm)30.21 "Hg (May 16, 11:35 pm)
Low36 °F (May 12, 5:35 am)20% (May 11, 5:45 pm)29.53 "Hg (May 19, 1:10 pm)
Average50 °F67%29.94 "Hg
* Reported May 9 10:15 pm — May 24 10:55 pm, 42°58'N, 88°02'W. Weather by CustomWeather, © 2019

Note: Actual official high and low records may vary slightly from our data, if they occured in-between our weather recording intervals... More about our weather records

Advertising

42°58'N, 88°02'W Weather History for the Previous 24 Hours

Scroll right to see more
 ConditionsComfort  
Time TempWeatherWind HumidityBarometerVisibility
10:55 pm
Fri, May 24
54 °FPassing clouds.3 mph82%29.90 "Hg10 mi
10:35 pm54 °FOvercast.No wind82%29.91 "Hg10 mi
10:15 pm54 °FOvercast.3 mph82%29.92 "Hg10 mi
9:55 pm54 °FPassing clouds.3 mph77%29.92 "Hg10 mi
9:35 pm54 °FPassing clouds.6 mph77%29.94 "Hg10 mi
9:15 pm54 °FPartly cloudy.5 mph82%29.93 "Hg10 mi
7:45 pm55 °FPartly sunny.7 mph77%29.96 "Hg10 mi
6:45 pm57 °FScattered clouds.7 mph77%29.97 "Hg10 mi
5:45 pm61 °FSunny.8 mph72%29.98 "Hg10 mi
4:45 pm63 °FSunny.12 mph68%30.00 "Hg10 mi
3:45 pm59 °FSunny.13 mph72%30.01 "Hg10 mi
2:45 pm55 °FScattered clouds.9 mph82%30.03 "Hg10 mi
1:45 pm52 °FFog.10 mph88%30.07 "Hg5 mi
12:50 pm54 °FLight rain. Fog.3 mph82%30.09 "Hg3 mi
12:30 pm54 °FThunderstorms. Fog.8 mph88%30.13 "Hg3 mi
12:10 pm54 °FLight rain. Fog.6 mph82%30.18 "Hg2 mi
11:45 am54 °FLight rain. Mostly cloudy.5 mph82%30.15 "Hg7 mi
10:45 am55 °FMostly cloudy.7 mph77%30.12 "Hg10 mi
9:45 am54 °FCloudy.6 mph82%30.10 "Hg10 mi
8:45 am52 °FLow clouds.5 mph88%30.11 "Hg10 mi
7:45 am52 °FLight rain. Mostly cloudy.3 mph88%30.15 "Hg10 mi
7:15 am52 °FRain. Overcast.5 mph82%30.17 "Hg7 mi
6:55 am52 °FRain. Overcast.3 mph82%30.17 "Hg7 mi
6:35 am52 °FRain. More clouds than sun.5 mph82%30.17 "Hg5 mi
6:15 am52 °FRain. More clouds than sun.3 mph82%30.20 "Hg5 mi
5:55 am52 °FRain. Overcast.No wind82%30.21 "Hg4 mi
5:35 am54 °FRain. Overcast.No wind72%30.18 "Hg10 mi
5:15 am54 °FPassing clouds.No wind72%30.15 "Hg10 mi
4:55 am54 °FClear.No wind72%30.13 "Hg10 mi
4:35 am52 °FClear.3 mph82%30.14 "Hg10 mi
4:15 am52 °FClear.No wind77%30.14 "Hg10 mi
3:55 am52 °FClear.No wind77%30.13 "Hg10 mi
3:35 am52 °FClear.No wind77%30.12 "Hg10 mi
2:55 am54 °FClear.No wind72%30.11 "Hg10 mi
2:35 am52 °FClear.No wind77%30.12 "Hg10 mi
1:55 am52 °FClear.No wind77%30.11 "Hg10 mi
1:35 am52 °FClear.No wind77%30.11 "Hg10 mi
1:15 am55 °FClear.No wind67%30.11 "Hg10 mi
12:55 am54 °FClear.No wind72%30.11 "Hg10 mi
12:35 am54 °FClear.No wind72%30.12 "Hg10 mi
12:15 am55 °FClear.No wind67%30.10 "Hg10 mi
Weather by CustomWeather, © 2019

See weather overview